[[{"header":{"parameterUnit":"m.s-1","parameterCategory":1,"la1":30.2991,"la2":30.254,"lo1":-89.0895,"lo2":-89.0444,"dy":0.0017,"dx":0.0017,"nx":28,"ny":28,"refTime":"2024-02-08T09:00:00:Z","depth":0,"parameterNumber":2,"parameterNumberName":"U-component_of_WINDS"},"data":[0,0,0,0,0,0,0,0,0,0,0,0,0,0,0,0,0,0,0,0,0,0,0,0,0,0,0,0,0,0,0,0,0,0,0,0,0,0,0,0,0,0,0,0,0,0,0,0,0,0,0,0,0,0,0,0,0,0,-3.3106,-3.3107,0,-3.3232,-3.3234,-3.3235,-3.325,-3.3248,-3.3247,-3.3246,-3.3377,-3.3381,-3.3386,0,0,0,0,0,0,0,0,0,0,0,0,0,-3.2879,-3.2883,-3.3106,-3.3107,-3.3109,-3.3232,-3.3234,-3.3236,-3.325,-3.3248,-3.3247,-3.3245,-3.3375,-3.3381,-3.3386,0,0,0,0,0,0,0,0,0,0,0,0,0,-3.2988,-3.2884,-3.3105,-3.3131,-3.3134,-3.3232,-3.3234,-3.3236,-3.325,-3.3248,-3.3247,-3.3245,-3.3374,-3.338,-3.3387,-3.3468,0,0,-3.3409,-3.3412,0,0,0,0,0,0,0,0,-3.2982,-3.2997,-3.3126,-3.3129,-3.3133,-3.3223,-3.3202,-3.3314,-3.3251,-3.3206,-3.3246,-3.3244,-3.3327,-3.3338,-3.3366,-3.3474,-3.348,-3.3409,-3.3413,-3.3416,-3.3418,0,0,0,0,0,0,0,-3.2975,-3.2991,-3.3156,-3.3127,-3.3132,-3.3137,-3.315,-3.3223,-3.3276,-3.321,-3.3211,-3.3226,-3.3329,-3.3359,-3.3369,-3.3482,-3.3409,-3.3415,-3.3419,-3.3422,-3.3664,-3.3666,0,0,0,0,0,0,-3.2962,-3.2985,-3.3152,-3.316,-3.3052,-3.3142,-3.3157,-3.3196,-3.3275,-3.3285,-3.3228,-3.3226,-3.3348,-3.3361,-3.3374,-3.3474,-3.3416,-3.3423,-3.3427,-3.3662,-3.3665,-3.3667,0,0,0,0,0,0,-3.2957,-3.2977,-3.3147,-3.3073,-3.3095,-3.3148,-3.3192,-3.32,-3.323,-3.3288,-3.3298,-3.3248,-3.3347,-3.3364,-3.3445,-3.3478,-3.3426,-3.3432,-3.3659,-3.3663,-3.3666,-3.3674,0,0,0,0,0,0,-3.295,-3.2975,-3.3005,-3.3073,-3.3099,-3.3215,-3.3194,-3.3204,-3.3242,-3.3241,-3.3311,-3.332,-3.3347,-3.3434,-3.3452,-3.3487,-3.3438,-3.3657,-3.3661,-3.3665,-3.3671,-3.3677,-3.3683,0,0,0,0,0,-3.2942,-3.3003,-3.3007,-3.3027,-3.3138,-3.3217,-3.3231,-3.326,-3.3244,-3.3276,-3.3314,-3.3318,-3.3473,-3.3442,-3.3462,-3.35,-3.3655,-3.366,-3.3665,-3.3668,-3.3676,-3.3683,0,0,0,0,0,0,-3.2937,-3.3012,-3.3017,-3.3102,-3.3153,-3.3219,-3.3259,-3.3268,-3.3324,-3.3321,-3.3356,-3.3372,-3.3451,-3.3484,-3.3449,-3.3583,-3.3562,-3.3571,-3.3558,-3.3566,-3.3572,-3.3561,-3.3444,0,0,0,0,0,-3.2946,-3.3003,-3.3066,-3.3134,-3.3159,-3.3205,-3.324,-3.3259,-3.3313,-3.3335,-3.3379,-3.3432,-3.3493,-3.3532,-3.3591,-3.3677,-3.3692,-3.3713,-3.3719,-3.3723,-3.373,-3.3779,-3.3789,-3.3684,-3.3684,-3.3684,0,0,-3.2965,-3.3013,-3.3046,-3.3134,-3.3176,-3.3235,-3.3223,-3.3286,-3.333,-3.3345,-3.3423,-3.3458,-3.3519,-3.3603,-3.3642,-3.3633,-3.3763,-3.373,-3.3733,-3.3738,-3.3785,-3.3795,-3.3804,-3.3687,-3.3687,-3.3686,0,0,-3.3028,-3.307,-3.3131,-3.3174,-3.3237,-3.3268,-3.3282,-3.3348,-3.3371,-3.3451,-3.3463,-3.3517,-3.3621,-3.3664,-3.37,-3.3783,-3.3788,-3.3801,-3.3831,-3.3878,-3.3886,-3.3893,-3.3922,-3.3932,-3.3808,-3.3808,-3.3808,0,-3.3042,-3.3131,-3.3162,-3.3225,-3.3263,-3.328,-3.3343,-3.3383,-3.3462,-3.3489,-3.3478,-3.3609,-3.3652,-3.3746,-3.3766,-3.3795,-3.3813,-3.3792,-3.3882,-3.389,-3.3897,-3.3925,-3.3936,-3.3809,-3.3809,-3.3809,-3.3809,0,-3.3146,-3.3207,-3.325,-3.3326,-3.3369,-3.3432,-3.3473,-3.3514,-3.3529,-3.3561,-3.3643,-3.3695,-3.3765,-3.379,-3.3805,-3.3887,-3.3879,-3.3875,-3.3854,-3.3908,-3.3934,-3.3945,-3.3811,-3.381,-3.381,-3.381,0,0,-3.3207,-3.3301,-3.3316,-3.3351,-3.3423,-3.3471,-3.3536,-3.3604,-3.3638,-3.3694,-3.3748,-3.3836,-3.3833,-3.3874,-3.3895,-3.3936,-3.3998,-3.3927,-3.3929,-3.3937,-3.4091,-3.4092,-3.4104,-3.4003,-3.4006,-3.4007,-3.4085,0,-3.3277,-3.339,-3.3421,-3.3517,-3.3575,-3.3593,-3.3649,-3.3699,-3.3732,-3.3786,-3.3822,-3.3884,-3.3875,-3.39,-3.3942,-3.3981,-3.4029,-3.3977,-3.4054,-3.4056,-3.4036,-3.4118,-3.4119,-3.419,-3.4096,-3.4098,-3.4099,0,-3.3373,-3.343,-3.3532,-3.3598,-3.3623,-3.3673,-3.3738,-3.379,-3.3849,-3.387,-3.3916,-3.3934,-3.4002,-3.3979,-3.4074,-3.4038,-3.4072,-3.4097,-3.41,-3.4107,-3.4079,-3.4125,-3.4213,-3.4223,-3.4116,-3.4114,-3.4113,0,-3.3406,-3.3509,-3.3583,-3.3613,-3.3691,-3.3726,-3.376,-3.3818,-3.3857,-3.3915,-3.3941,-3.4007,-3.4043,-3.4094,-3.4129,-3.4109,-3.4221,-3.4201,-3.424,-3.4239,-3.426,-3.4258,-3.4353,-3.4286,-3.4285,-3.4285,-3.4285,0,-3.348,-3.3541,-3.3598,-3.3644,-3.3713,-3.375,-3.3818,-3.3853,-3.3904,-3.3958,-3.3979,-3.4028,-3.4073,-3.4129,-3.4158,-3.4232,-3.4248,-3.4267,-3.4273,-3.4264,-3.4261,-3.4285,-3.428,-3.4288,-3.4287,-3.4287,-3.4286,0,-3.3527,-3.3568,-3.365,-3.3718,-3.3737,-3.3785,-3.3845,-3.389,-3.3924,-3.3991,-3.4009,-3.4062,-3.413,-3.4171,-3.4256,-3.4276,-3.4357,-3.4363,-3.4336,-3.4339,-3.4375,-3.437,-3.4487,-3.4504,-3.4427,-3.4427,-3.4428,0,-3.3571,-3.3618,-3.3692,-3.3729,-3.3764,-3.3824,-3.3864,-3.3903,-3.3944,-3.4016,-3.4053,-3.4121,-3.4178,-3.4285,-3.4332,-3.4398,-3.4404,-3.4441,-3.4414,-3.4403,-3.4403,-3.4399,-3.4404,-3.4444,-3.4445,-3.4445,-3.4446,0,-3.3643,-3.3662,-3.3719,-3.3784,-3.3832,-3.3885,-3.3938,-3.3967,-3.4015,-3.4061,-3.413,-3.4174,-3.4262,-3.433,-3.44,-3.4437,-3.4449,-3.4454,-3.4466,-3.4456,-3.4438,-3.4447,-3.4347,-3.4451,-3.445,-3.445,-3.4449,-3.4449,-3.3689,-3.3732,-3.3791,-3.3855,-3.3899,-3.3948,-3.3994,-3.4034,-3.4092,-3.4166,-3.4186,-3.4258,-3.4318,-3.4413,-3.4452,-3.451,-3.4504,-3.4522,-3.4526,-3.453,-3.453,-3.4431,-3.4523,-3.4523,-3.4523,-3.4523,-3.4523,0,-3.3761,-3.3801,-3.3859,-3.3933,-3.3983,-3.3991,-3.4051,-3.4093,-3.4156,-3.421,-3.4266,-3.4345,-3.4412,-3.4465,-3.4533,-3.4569,-3.4577,-3.4586,-3.4583,-3.4591,-3.4531,-3.4513,-3.4579,-3.4579,-3.4579,-3.4579,-3.4579,-3.4579,-3.3805,-3.3878,-3.3904,-3.4,-3.4039,-3.4109,-3.4143,-3.4189,-3.4232,-3.432,-3.4375,-3.441,-3.4464,-3.4537,-3.4599,-3.4613,-3.4636,-3.4644,-3.4659,-3.4602,-3.4595,-3.4589,-3.4572,-3.4649,-3.465,-3.4714,-3.4715,-3.4715]},{"header":{"parameterUnit":"m.s-1","parameterCategory":1,"la1":30.2991,"la2":30.254,"lo1":-89.0895,"lo2":-89.0444,"dy":0.0017,"dx":0.0017,"nx":28,"ny":28,"refTime":"2024-02-08T09:00:00:Z","depth":0,"parameterNumber":3,"parameterNumberName":"V-component_of_WINDS"},"data":[0,0,0,0,0,0,0,0,0,0,0,0,0,0,0,0,0,0,0,0,0,0,0,0,0,0,0,0,0,0,0,0,0,0,0,0,0,0,0,0,0,0,0,0,0,0,0,0,0,0,0,0,0,0,0,0,0,0,2.2212,2.2213,0,2.235,2.2352,2.2354,2.2408,2.2408,2.2408,2.2407,2.2549,2.2553,2.2557,0,0,0,0,0,0,0,0,0,0,0,0,0,2.1995,2.1999,2.2211,2.2213,2.2215,2.235,2.2352,2.2354,2.2409,2.2408,2.2408,2.2407,2.2548,2.2552,2.2557,0,0,0,0,0,0,0,0,0,0,0,0,0,2.2107,2.2,2.2211,2.2258,2.2264,2.235,2.2352,2.2354,2.2409,2.2408,2.2408,2.2407,2.2546,2.2552,2.2558,2.2607,0,0,2.2577,2.2579,0,0,0,0,0,0,0,0,2.2101,2.2115,2.225,2.2255,2.2262,2.2362,2.2328,2.2439,2.2409,2.2354,2.2407,2.2407,2.2487,2.2498,2.2525,2.2613,2.2619,2.2577,2.2581,2.2584,2.2585,0,0,0,0,0,0,0,2.2093,2.2109,2.2266,2.2252,2.2259,2.2273,2.2289,2.2349,2.2422,2.2358,2.2363,2.2379,2.249,2.2519,2.2529,2.2621,2.2577,2.2583,2.2586,2.2589,2.276,2.2761,0,0,0,0,0,0,2.2077,2.2102,2.2262,2.2271,2.2178,2.2278,2.2295,2.233,2.2421,2.2434,2.2379,2.2381,2.2509,2.2522,2.2534,2.26,2.2584,2.2589,2.2593,2.2759,2.276,2.2761,0,0,0,0,0,0,2.2072,2.2091,2.2256,2.2188,2.221,2.2282,2.2321,2.2333,2.2362,2.2437,2.245,2.2395,2.2509,2.2525,2.2589,2.2605,2.2592,2.2598,2.2758,2.276,2.2761,2.2729,0,0,0,0,0,0,2.2066,2.2089,2.2107,2.2188,2.2213,2.2308,2.2322,2.2336,2.2373,2.2376,2.2455,2.2468,2.251,2.258,2.2595,2.2613,2.2603,2.2757,2.2759,2.276,2.2729,2.2729,2.2729,0,0,0,0,0,2.2058,2.2092,2.2108,2.2127,2.2238,2.2309,2.2324,2.2372,2.2374,2.2394,2.2442,2.2465,2.2601,2.2586,2.2604,2.2624,2.2756,2.2758,2.276,2.2729,2.2729,2.2729,0,0,0,0,0,0,2.201,2.2103,2.2122,2.2183,2.2238,2.2318,2.2344,2.237,2.2425,2.2426,2.2483,2.25,2.256,2.2598,2.258,2.2678,2.268,2.2686,2.265,2.2651,2.2651,2.2641,2.2608,0,0,0,0,0,2.2007,2.2056,2.2135,2.2181,2.2208,2.2271,2.2304,2.2337,2.2396,2.2419,2.2472,2.2529,2.2585,2.262,2.2675,2.2735,2.2754,2.2758,2.2758,2.2757,2.2762,2.28,2.2803,2.2768,2.2768,2.2768,0,0,2.2,2.2057,2.2085,2.2173,2.222,2.2271,2.2291,2.2343,2.2382,2.2427,2.2491,2.2532,2.2599,2.2662,2.2692,2.2696,2.2776,2.276,2.2759,2.2764,2.2802,2.2805,2.2808,2.2769,2.2769,2.2769,0,0,2.2014,2.2061,2.2107,2.2154,2.2224,2.2267,2.2278,2.2355,2.2385,2.245,2.2486,2.2533,2.2627,2.2675,2.2711,2.2747,2.2771,2.2763,2.2764,2.28,2.2803,2.2806,2.2821,2.2825,2.2767,2.2767,2.2767,0,2.1997,2.2075,2.2126,2.2178,2.2217,2.2262,2.2309,2.2352,2.2436,2.2463,2.2466,2.2587,2.2635,2.2711,2.272,2.2747,2.2763,2.2755,2.2798,2.2801,2.2805,2.282,2.2825,2.2766,2.2766,2.2766,2.2766,0,2.2052,2.2106,2.2134,2.2216,2.2258,2.2307,2.2367,2.2404,2.2433,2.2476,2.2544,2.2603,2.2673,2.2693,2.2722,2.2774,2.2775,2.2787,2.2791,2.2806,2.2821,2.2827,2.2764,2.2765,2.2765,2.2765,0,0,2.2038,2.2151,2.216,2.22,2.2282,2.2326,2.2378,2.2447,2.2478,2.2536,2.2582,2.2662,2.2675,2.2717,2.2751,2.2783,2.2811,2.2792,2.2794,2.2795,2.2876,2.2867,2.2872,2.2827,2.2829,2.283,2.2871,0,2.2064,2.216,2.2209,2.2284,2.2336,2.2381,2.2427,2.2483,2.2525,2.2576,2.2622,2.2679,2.2691,2.2717,2.275,2.28,2.2828,2.2798,2.2873,2.2875,2.2855,2.288,2.287,2.2906,2.2877,2.2878,2.2879,0,2.2108,2.2167,2.2247,2.2327,2.2351,2.2391,2.246,2.2508,2.2574,2.2603,2.265,2.2685,2.2743,2.2743,2.2826,2.2804,2.2838,2.2867,2.287,2.288,2.2878,2.2892,2.2918,2.2924,2.2888,2.2887,2.2887,0,2.2092,2.2192,2.2254,2.2286,2.238,2.2408,2.2448,2.2514,2.2553,2.2614,2.2641,2.2706,2.2743,2.2793,2.2846,2.284,2.2924,2.2927,2.2951,2.295,2.2967,2.2965,2.3,2.2986,2.2986,2.2986,2.2985,0,2.2117,2.2165,2.2249,2.2286,2.2343,2.2399,2.2453,2.2497,2.2556,2.2605,2.2647,2.2691,2.2757,2.2811,2.2852,2.2915,2.2931,2.2957,2.2967,2.2954,2.2951,2.2977,2.2977,2.2987,2.2987,2.2986,2.2986,0,2.2109,2.2166,2.2237,2.2322,2.2345,2.2382,2.2455,2.2495,2.254,2.2601,2.2619,2.2689,2.2755,2.2812,2.2898,2.2926,2.2992,2.3004,2.297,2.2976,2.2997,2.2994,2.3051,2.3062,2.3038,2.3039,2.3039,0,2.2121,2.216,2.225,2.2286,2.2326,2.2383,2.2424,2.2483,2.2524,2.2604,2.2635,2.2703,2.2762,2.2864,2.2924,2.2991,2.3006,2.3021,2.3016,2.3002,2.3008,2.3006,2.3011,2.3021,2.3021,2.3021,2.3021,0,2.2138,2.2166,2.2224,2.2293,2.2342,2.2399,2.2457,2.2484,2.2554,2.2598,2.2667,2.2712,2.2801,2.287,2.2944,2.2986,2.3016,2.3022,2.3032,2.3018,2.2998,2.3012,2.2971,2.3021,2.3021,2.3021,2.3021,2.3021,2.2142,2.218,2.225,2.2314,2.2365,2.2419,2.2461,2.2513,2.2571,2.2649,2.268,2.275,2.2819,2.2921,2.2964,2.3021,2.3026,2.3038,2.3042,2.3045,2.3044,2.2988,2.3034,2.3034,2.3034,2.3034,2.3035,0,2.2163,2.2211,2.227,2.2352,2.2403,2.2427,2.2494,2.2535,2.2597,2.2658,2.2715,2.2795,2.2863,2.2929,2.3,2.3033,2.3049,2.305,2.3049,2.3059,2.3034,2.302,2.3036,2.3036,2.3036,2.3036,2.3036,2.3036,2.218,2.2246,2.2282,2.2375,2.2423,2.2492,2.2529,2.258,2.263,2.2717,2.2774,2.2817,2.2882,2.2959,2.3022,2.304,2.3065,2.3063,2.3085,2.3061,2.306,2.3059,2.3046,2.3068,2.3068,2.3105,2.3106,2.3106]}]]